Location: Mactaquac Provincial Park
(45.9573°N, 66.8897°W)
Time: 06:46:35
(UTC-03:00)

Daily predictions for brighter satellites

Satellite Brightness Start Highest point End
(mag) Time Altitude Azimuth Time Altitude Azimuth Time Altitude Azimuth
Cosmos 2082 4.0 20:36:49 10° NNW 20:42:20 52° ENE 20:47:48 10° SE
Cosmos 2297 Rocket 2.7 20:39:09 10° NNW 20:44:34 43° NE 20:49:56 10° SE
Cosmos 1821 Rocket 3.9 20:49:06 10° S 20:55:12 82° E 21:01:19 10° N
Cosmos 1570 Rocket 4.1 20:50:12 10° S 20:55:22 56° ESE 21:00:33 10° NNE
Meteor 2-16 Rocket 4.4 20:49:51 10° S 20:55:52 68° E 21:01:54 10° NNE
CZ-4 DEB 3.8 20:54:26 10° SE 20:57:10 28° ENE 20:59:56 10° N
Cosmos 1605 Rocket 4.2 20:52:06 10° SSE 20:58:12 52° E 21:04:15 10° NNE
Envisat 3.9 20:54:45 10° SE 20:59:10 31° ENE 21:03:36 10° N
Helios 1B rocket 4.2 21:01:47 10° N 21:05:38 38° WNW 21:09:26 10° SW
EO 1 Delta rocket 3.9 21:04:36 10° NNE 21:09:14 74° E 21:14:21 10° S
Iridium 4 Rocket 3.7 21:06:18 10° N 21:11:23 47° E 21:15:58 10° SSE
DELTA 2 R/B (1) 4.2 21:10:03 10° WSW 21:15:16 43° S 21:19:39 14° ESE
YAOGAN 11 4.2 21:13:22 10° SSE 21:17:49 61° ENE 21:22:15 10° N
Cosmos 1743 4.4 21:18:09 15° ESE 21:19:23 17° E 21:21:58 10° NE
Okean 2 4.4 21:15:43 10° NNW 21:19:46 50° W 21:23:47 10° S
Cosmos 1975 3.0 21:19:02 10° S 21:23:01 52° E 21:27:02 10° NNE
Cosmos 2123 Rocket 4.2 21:18:07 10° NNW 21:24:18 76° W 21:30:27 10° S
Cosmos 1697 Rocket 3.4 21:21:08 10° SSE 21:25:59 31° ESE 21:30:51 10° NE
NOSS 2-1 (D) 4.2 21:22:16 10° SW 21:26:09 56° NW 21:30:46 10° NNE
NOSS 2-1 (C) 4.2 21:23:17 10° SW 21:27:11 57° NW 21:31:48 10° NNE
Cosmos 2278 3.7 21:22:21 10° SSW 21:28:01 81° ESE 21:33:46 10° NNE
Lacrosse 5 rocket 1.2 21:27:34 10° NW 21:31:17 66° SW 21:33:40 20° SE
H-2A R/B 2.5 21:29:22 18° SE 21:31:57 39° ENE 21:35:50 10° N
ERS-1 Rocket 2.9 21:28:00 10° SSE 21:33:01 77° ENE 21:38:03 10° NNW
Cosmos 1626 Rocket 3.5 21:29:13 10° N 21:33:41 90° SW 21:38:03 10° S
ALOS 3.7 21:29:23 10° SSW 21:33:44 38° W 21:38:06 10° NNW
Cosmos 1898 Rocket 3.6 21:29:37 10° NNW 21:34:54 62° ENE 21:38:49 18° SE
Meteor 1-12 Rocket 4.2 21:31:54 10° S 21:37:37 82° E 21:43:30 10° NNE
deb Chang Zheng 4 4.2 21:33:49 10° NNE 21:37:56 35° E 21:40:52 17° SSE
Cosmos 1455 Rocket 4.0 21:36:13 10° SSW 21:40:25 50° WNW 21:44:41 10° N
Cosmos 2369 3.7 21:35:39 10° SSW 21:41:20 90° WNW 21:47:05 10° NNE
Cosmos 1461 3.9 21:37:35 10° NW 21:41:24 39° WSW 21:44:43 12° S
Cosmos 1602 Rocket 3.8 21:37:34 10° NNW 21:42:03 74° W 21:46:28 10° S
Cosmos 1459 Rocket 4.2 21:37:18 10° SSE 21:43:01 46° E 21:48:48 10° NNE
Cosmos 1980 Rocket 3.0 21:45:16 19° SE 21:48:06 28° ESE 21:52:54 10° NE
SL-24 R/B - RUBIN 2 4.4 21:42:58 10° SSW 21:48:44 57° ESE 21:55:06 10° NE
ARGOS 4.0 21:49:20 23° ESE 21:51:50 34° ENE 21:56:38 10° N
Cosmos 1939 Rocket 3.0 21:51:41 16° S 21:54:56 76° W 21:59:07 10° NNW
Cosmos 1153 Rocket 4.5 21:48:44 10° S 21:54:57 86° W 22:01:08 10° N
Cosmos 468 Rocket 4.0 21:51:55 10° S 21:56:55 57° ESE 22:01:57 10° NNE
Lacrosse 5 1.9 21:52:37 10° NW 21:57:42 76° NE 22:00:15 30° ESE
USA 215 3.6 21:57:32 20° E 22:02:08 57° NNE 22:08:31 10° NW
Cosmos 2084 3.4 22:00:02 10° NW 22:04:04 72° SW 22:05:45 34° SSE
Meteor 1-21 4.4 21:58:47 10° N 22:04:30 60° ENE 22:07:31 28° SE
SPOT 5 2.9 22:02:06 25° SSE 22:05:01 74° ENE 22:09:52 10° N
Cosmos 1814 Rocket 4.1 21:59:50 10° S 22:05:03 57° ESE 22:10:16 10° NNE
Cosmos 841 Rocket 4.3 22:05:02 29° ESE 22:05:25 30° E 22:09:55 10° NE
Cosmos 2058 Rocket 4.0 22:07:22 30° E 22:07:27 30° E 22:11:23 10° NNE
Cosmos 1802 Rocket 4.1 22:02:59 14° S 22:08:30 63° E 22:14:51 10° NNE
MetOp-B 4.1 22:07:59 28° SSE 22:10:51 74° ENE 22:16:13 10° N
Cosmos 1666 4.0 22:12:19 26° ENE 22:12:19 26° ENE 22:14:43 10° NNE
Cosmos 2227 Rocket 3.8 22:07:51 10° NW 22:12:45 31° WSW 22:17:38 10° SSW
Cosmos 2263 Rocket 3.8 22:10:15 10° N 22:14:26 21° NE 22:16:34 17° ENE
Tiangong 1 2.0 22:14:06 10° W 22:16:25 36° SW 22:16:25 36° SW
Cosmos 1606 Rocket 3.6 22:17:37 43° SSE 22:18:45 59° E 22:23:08 10° NNE
Cosmos 2322 Rocket 3.8 22:21:37 17° ENE 22:21:37 17° ENE 22:23:37 10° NE
RESURS DK-1 2.3 22:17:09 10° NNW 22:21:18 80° WSW 22:22:21 49° SSE
Cosmos 1500 4.1 22:18:31 10° SSW 22:22:10 48° WNW 22:25:50 10° N
Cosmos 1656 3.8 22:17:03 10° SSW 22:22:41 75° WNW 22:28:16 10° NNE
BREEZE-M TANK 3.3 22:15:11 10° WNW 22:23:53 45° SW 22:24:55 37° S
Cosmos 2016 Rocket 3.9 22:23:05 24° S 22:26:57 72° E 22:33:09 10° NNE
SL-19 R/B 4.2 22:21:44 10° NNE 22:27:12 56° ESE 22:28:54 39° SSE
Cosmos 2297 Rocket 3.6 22:23:29 10° NW 22:28:27 32° WSW 22:32:48 13° SSW
Landsat 7 4.4 22:28:52 38° E 22:29:28 39° ENE 22:33:55 10° N
Meteor 2-9 Rocket 4.4 22:28:35 42° SE 22:29:39 48° E 22:34:51 10° NNE
SL-08 RB Rocket 3.9 22:29:16 48° ESE 22:30:04 55° ENE 22:34:37 10° N
PSLV R/B 3.5 22:31:36 61° NW 22:31:36 61° NW 22:34:16 10° NNW
Cosmos 2227 4.2 22:25:44 10° NNW 22:31:32 77° ENE 22:33:26 44° SE
Cosmos 1340 2.8 22:30:39 10° NNW 22:34:26 69° W 22:34:56 59° SSW
CZ-4 R/B 4.5 22:31:25 10° NNE 22:35:15 38° E 22:35:15 38° E
Envisat 4.3 22:34:14 14° SSW 22:38:05 37° W 22:42:48 10° NNW
CZ-4 SHROUD 3.9 22:38:48 52° NW 22:38:48 52° NW 22:41:19 10° NNW
Cosmos 405 Rocket 4.2 22:35:24 10° NNE 22:37:44 24° NE 22:37:44 24° NE
H-2A R/B 2.4 22:39:12 42° E 22:39:45 44° ENE 22:44:26 10° N
Cosmos 2173 Rocket 4.3 22:33:31 10° SSW 22:39:52 70° W 22:46:13 10° N
Cosmos 1937 Rocket 4.1 22:36:20 10° NNW 22:41:26 51° WSW 22:43:40 31° SSW
Cosmos 1726 Rocket 3.4 22:42:19 62° S 22:43:02 90° NNE 22:47:28 10° N
ASTEX 1 3.5 22:39:12 10° N 22:44:13 74° W 22:46:25 34° SSW
Terra 2.5 22:44:43 39° ENE 22:44:50 39° ENE 22:49:16 10° N
Cosmos 2098 Rocket 4.0 22:45:59 31° S 22:49:34 81° E 22:55:29 10° N
YAOGAN 6 3.6 22:49:35 39° WSW 22:49:59 41° W 22:53:31 10° NNW
GEOS 3 Rocket 4.0 22:45:36 10° NE 22:49:23 42° E 22:49:23 42° E
Tsikada Rocket 4.0 22:47:03 10° N 22:53:31 85° E 22:55:35 47° SSE
Cosmos 1864 Rocket 4.3 22:52:34 45° S 22:54:33 78° E 23:00:41 10° N
Cosmos 1743 4.1 22:53:16 25° SW 22:54:56 38° WNW 22:58:37 10° N
SPOT 1/Viking Rocket 3.8 22:57:13 46° SSW 22:58:38 64° WSW 23:03:50 10° NNW
Spot 4 4.5 23:02:41 42° ENE 23:02:41 42° ENE 23:06:53 10° N
CZ-4B R/B 3.2 22:58:00 10° NNE 23:02:47 88° ESE 23:03:04 80° S
H-2A R/B 4.1 23:06:31 16° WSW 23:08:09 19° W 23:11:11 10° NW
Cosmos 836 Rocket 4.4 23:08:22 73° E 23:08:22 73° E 23:13:34 10° NNE
Cosmos 1697 Rocket 3.7 23:04:20 10° SW 23:09:45 45° WNW 23:15:12 10° NNE
Cosmos 1842 4.3 23:10:07 10° NNW 23:13:32 40° W 23:13:32 40° W
SL-16 R/B 2.8 23:15:31 42° ENE 23:15:31 42° ENE 23:19:38 10° NE
GP-B 4.0 23:13:16 10° N 23:16:20 40° NE 23:16:20 40° NE
Cosmos 2346 Rocket 4.3 23:15:43 10° N 23:21:59 76° E 23:22:33 70° SE
Cosmos 1125 Rocket 3.5 23:18:01 10° NNW 23:23:13 72° WSW 23:23:14 72° WSW
Cosmos 1725 Rocket 4.3 23:22:45 37° SW 23:25:10 63° WNW 23:31:23 10° N
Cosmos 1763 Rocket 4.2 23:24:18 31° WSW 23:26:22 50° WNW 23:31:20 10° NNE
Cosmos 2228 3.8 23:29:02 50° NW 23:29:02 50° NW 23:32:37 10° N
IGS 5A 4.4 23:30:03 47° NNW 23:30:03 47° NNW 23:33:04 10° NNW
Meteor 2-5 Rocket 3.7 23:23:06 10° N 23:29:03 74° ENE 23:29:09 74° E
Cosmos 1980 Rocket 3.0 23:26:51 13° SW 23:31:50 49° WNW 23:37:23 10° NNE
ARGOS 4.2 23:30:52 33° SW 23:32:00 37° W 23:36:59 10° NNW
Cosmos 2360 Rocket 4.0 23:35:19 19° ENE 23:35:19 19° ENE 23:37:14 10° NE
Lacrosse 5 3.6 23:36:19 10° WNW 23:39:26 22° WSW 23:39:26 22° WSW
BREEZE-M DEB (TANK) 4.2 23:13:26 10° WNW 23:41:50 76° SW 23:43:29 59° SSE
USA 215 3.4 23:44:53 57° SW 23:45:10 57° SW 23:51:36 10° WNW
DMSP B5D2-2 4.2 23:41:43 10° NNE 23:46:32 72° NNW 23:46:32 72° NNW
Cosmos 2233 Rocket 4.2 23:51:56 55° WSW 23:52:53 62° WNW 23:59:05 10° N
